Flag for U.S.A. Weather past 2 weeks in Myrtle Beach, South Carolina, U.S.A.

Now
45 °F

Scattered clouds.


Feels Like: 37 °F
Forecast: 41 / 56 °F
Wind: 18 mph from Northeast

Location: Myrtle Beach Air Force Base


UV Index: 5 (Moderate)

Visibility: 10 mi


Pressure: 30.29 "Hg

Humidity: 66%

Dew point: 34 °F

Location of Myrtle BeachLocation

Historic Weather in Myrtle Beach

°F

Myrtle Beach temperature yesterday

Maximum temperature yesterday: 72 °F (at 10:47 AM)
Minimum temperature yesterday: 48 °F (at 11:55 PM)
Average temperature yesterday: 67 °F

Past Weeks' High & Low Weather Summary

 TemperatureHumidityPressure
High82 °F (Apr 2, 12:49 PM)100% (Apr 7, 11:35 PM)30.30 "Hg (Apr 7, 11:35 PM)
Low41 °F (Apr 16, 5:35 AM)13% (Apr 1, 12:45 PM)29.60 "Hg (Apr 8, 3:45 PM)
Average64 °F70%30.02 "Hg
* Reported Apr 1 8:50 AM — Apr 16 8:45 AM, Myrtle Beach, Weather by CustomWeather, © 2014

Note: Actual official high and low records may vary slightly from our data, if they occured in-between our weather recording intervals... More about our weather records

Advertising

Historic Weather Conditions — Data for Previous 24 hours

 ConditionsComfort  
Time TempWeatherWind HumidityBarometerVisibility
8:45 AM
Apr 16
43 °FScattered clouds.16 mph61%30.27 "Hg10 mi
7:50 AM43 °FPartly sunny.17 mph61%30.25 "Hg10 mi
6:45 AM41 °FPassing clouds.17 mph61%30.20 "Hg10 mi
5:50 AM41 °FClear.17 mph57%30.16 "Hg10 mi
5:35 AM41 °FClear.13 mph61%30.15 "Hg10 mi
5:15 AM43 °FClear.13 mph57%30.14 "Hg10 mi
4:55 AM43 °FClear.14 mph57%30.13 "Hg10 mi
4:35 AM43 °FClear.18 mph57%30.11 "Hg10 mi
4:15 AM43 °FClear.14 mph57%30.11 "Hg10 mi
3:55 AM43 °FClear.17 mph61%30.10 "Hg10 mi
3:35 AM45 °FClear.18 mph57%30.08 "Hg10 mi
3:15 AM45 °FPassing clouds.13 mph57%30.07 "Hg10 mi
2:55 AM45 °FPassing clouds.15 mph57%30.07 "Hg10 mi
2:35 AM45 °FClear.13 mph57%30.05 "Hg10 mi
2:15 AM45 °FClear.13 mph61%30.04 "Hg10 mi
1:55 AM46 °FClear.15 mph62%30.02 "Hg10 mi
1:35 AM46 °FClear.20 mph62%30.01 "Hg10 mi
1:15 AM46 °FClear.18 mph66%30.01 "Hg10 mi
12:55 AM46 °FClear.14 mph66%29.99 "Hg10 mi
12:35 AM46 °FClear.18 mph71%29.97 "Hg10 mi
11:55 PM
Apr 15
48 °FPassing clouds.29 mph71%29.94 "Hg10 mi
11:15 PM52 °FMostly cloudy.24 mph82%29.91 "Hg10 mi
10:55 PM52 °FLow clouds.28 mph88%29.88 "Hg10 mi
9:45 PM55 °FLight rain. Passing clouds.17 mph82%29.81 "Hg10 mi
8:45 PM64 °FLight rain. Fog.12 mph88%29.73 "Hg6 mi
6:45 PM70 °FScattered clouds.17 mph78%29.67 "Hg10 mi
5:45 PM68 °FScattered clouds.17 mph88%29.67 "Hg8 mi
4:45 PM68 °FScattered clouds.17 mph88%29.67 "Hg10 mi
3:45 PM70 °FBroken clouds.17 mph83%29.67 "Hg10 mi
2:45 PM70 °FBroken clouds.16 mph83%29.72 "Hg10 mi
1:45 PM70 °FHail. Fog.N/A78%29.75 "Hg10 mi
12:45 PM70 °FBroken clouds.17 mph83%29.77 "Hg10 mi
11:45 AM70 °FBroken clouds.16 mph83%29.79 "Hg10 mi
10:47 AM72 °FPartly sunny.9 mph78%29.78 "Hg10 mi
Weather by CustomWeather, © 2014

See weather overview